TimeCST,TemperatureF,Dew PointF,Humidity,Sea Level PressureIn,VisibilityMPH,Wind Direction,Wind SpeedMPH,Gust SpeedMPH,PrecipitationIn,Events,Conditions,WindDirDegrees,DateUTC
12:53 AM,53.1,41.0,64,29.50,10.0,West,16.1,21.9,N/A,,Partly Cloudy,260,2013-02-26 06:53:00
1:53 AM,50.0,39.0,66,29.51,10.0,WSW,10.4,-,N/A,,Clear,250,2013-02-26 07:53:00
2:53 AM,48.0,36.0,63,29.52,10.0,West,11.5,-,N/A,,Clear,260,2013-02-26 08:53:00
3:53 AM,46.0,34.0,63,29.53,10.0,West,11.5,-,N/A,,Clear,260,2013-02-26 09:53:00
4:53 AM,46.0,34.0,63,29.55,10.0,West,17.3,24.2,N/A,,Overcast,260,2013-02-26 10:53:00
5:53 AM,46.0,35.1,66,29.57,10.0,West,11.5,27.6,N/A,,Overcast,260,2013-02-26 11:53:00
6:53 AM,45.0,34.0,65,29.59,10.0,WSW,12.7,20.7,N/A,,Overcast,250,2013-02-26 12:53:00
7:53 AM,45.0,34.0,65,29.62,10.0,WSW,13.8,20.7,N/A,,Overcast,240,2013-02-26 13:53:00
8:53 AM,46.0,34.0,63,29.64,10.0,WSW,15.0,23.0,N/A,,Overcast,240,2013-02-26 14:53:00
9:53 AM,46.0,34.0,63,29.68,10.0,WSW,16.1,24.2,N/A,,Overcast,250,2013-02-26 15:53:00
10:53 AM,46.0,34.0,63,29.70,10.0,WSW,11.5,20.7,N/A,,Overcast,240,2013-02-26 16:53:00
11:53 AM,46.9,33.1,59,29.71,10.0,WSW,18.4,24.2,N/A,,Overcast,250,2013-02-26 17:53:00
12:53 PM,46.9,33.1,59,29.72,10.0,West,18.4,31.1,N/A,,Overcast,260,2013-02-26 18:53:00
1:53 PM,46.9,33.1,59,29.73,10.0,West,19.6,27.6,N/A,,Overcast,260,2013-02-26 19:53:00
2:53 PM,48.0,34.0,58,29.74,10.0,West,11.5,19.6,N/A,,Overcast,260,2013-02-26 20:53:00
3:53 PM,48.0,33.1,56,29.75,10.0,West,19.6,26.5,N/A,,Overcast,280,2013-02-26 21:53:00
4:53 PM,50.0,34.0,54,29.77,10.0,WSW,18.4,25.3,N/A,,Mostly Cloudy,250,2013-02-26 22:53:00
5:53 PM,48.0,34.0,58,29.80,10.0,WNW,5.8,-,N/A,,Clear,290,2013-02-26 23:53:00
6:53 PM,45.0,34.0,65,29.81,10.0,Calm,Calm,-,N/A,,Clear,0,2013-02-27 00:53:00
7:53 PM,42.1,35.1,76,29.83,10.0,Calm,Calm,-,N/A,,Clear,0,2013-02-27 01:53:00
8:53 PM,41.0,35.1,79,29.86,10.0,Calm,Calm,-,N/A,,Clear,0,2013-02-27 02:53:00
9:53 PM,39.9,36.0,86,29.88,10.0,Calm,Calm,-,N/A,,Clear,0,2013-02-27 03:53:00
10:53 PM,37.9,36.0,93,29.90,9.0,Calm,Calm,-,N/A,,Clear,0,2013-02-27 04:53:00
11:53 PM,37.0,35.1,93,29.90,6.0,Calm,Calm,-,N/A,,Clear,0,2013-02-27 05:53:00